Weather History for Toledo, OH

Change the Weather History Date:

Tuesday, April 9, 2013

  Actual Average Record
Temperature  
Mean Temperature 56 °F 47 °F  
Max Temperature 66 °F 58 °F 80 °F (1967)
Min Temperature 45 °F 37 °F 15 °F (1957)
Degree Days  
Heating Degree Days 9 18  
Month to date heating degree days 195 177  
Since 1 July heating degree days 5622 5603  
Cooling Degree Days 0 0  
Month to date cooling degree days 0 0  
Year to date cooling degree days 0 0  
Growing Degree Days 6 (Base 50)    
Moisture  
Dew Point 42 °F    
Average Humidity 67    
Maximum Humidity 86    
Minimum Humidity 48    
Precipitation  
Precipitation T in 0.11 in 1.21 in (1998)
Month to date precipitation 0.03 0.93  
Year to date precipitation 7.20 7.53  
Snow  
Snow 0.00 in 0.10 in - ()
Month to date snowfall T 0.7  
Since 1 July snowfall 22.1 36.9  
Snow Depth 0.00 in    
Sea Level Pressure  
Sea Level Pressure 29.98 in    
Wind  
Wind Speed 7 mph (ENE)    
Max Wind Speed 15 mph    
Max Gust Speed 17 mph    
Visibility 9 miles    
Events      
T = Trace of Precipitation, MM = Missing Value Source: NWS Daily Summary

Daily Weather History Graph

Daily Weather History Graph

Search for Another Location

Airport:

Trip Planner

Search our weather history database for the weather conditions in past years. The results will help you decide how hot, cold, wet, or windy it might be!

Date:

Astronomy

Apr. 09, 2013 Rise Set
Actual Time 7:04 AM EDT 8:09 PM EDT
Civil Twilight 6:36 AM EDT 8:38 PM EDT
Nautical Twilight 6:02 AM EDT 9:12 PM EDT
Astronomical Twilight 5:26 AM EDT 9:47 PM EDT
Moon 6:26 AM EDT (4/9) 7:44 PM EDT (4/9)
Length of Visible Light 14h 01m
Length of Day
13h 05m
Waning Crescent, 1% of the Moon is Illuminated
Apr 9
Waning Crescent
Apr 10
New
Apr 18
First Quarter
Apr 25
Full
May 2
Last Quarter

Hourly Weather History & Observations

Time (EDT) Temp. Windchill Dew Point Humidity Pressure Visibility Wind Dir Wind Speed Gust Speed Precip Events Conditions
12:52 AM 50.0 °F - 41.0 °F 71% 30.00 in 10.0 mi West 5.8 mph - N/A   Clear
1:52 AM 50.0 °F - 39.9 °F 68% 30.01 in 10.0 mi NNW 5.8 mph - N/A   Scattered Clouds
2:52 AM 46.9 °F - 39.0 °F 74% 30.03 in 10.0 mi Calm Calm - N/A   Clear
3:52 AM 46.0 °F 43.9 °F 39.9 °F 79% 30.03 in 10.0 mi NNE 4.6 mph - N/A   Overcast
4:52 AM 45.0 °F 43.5 °F 39.9 °F 82% 30.05 in 10.0 mi NE 3.5 mph - N/A   Overcast
5:52 AM 45.0 °F 41.8 °F 39.9 °F 82% 30.06 in 10.0 mi ENE 5.8 mph - N/A   Overcast
6:52 AM 45.0 °F 41.2 °F 39.9 °F 82% 30.07 in 8.0 mi ENE 6.9 mph - N/A   Overcast
7:52 AM 46.0 °F 43.1 °F 39.9 °F 79% 30.07 in 6.0 mi East 5.8 mph - N/A   Haze
8:52 AM 48.0 °F - 41.0 °F 77% 30.07 in 7.0 mi East 10.4 mph - N/A   Mostly Cloudy
9:52 AM 48.9 °F - 42.1 °F 77% 30.05 in 7.0 mi East 13.8 mph - N/A   Overcast
10:52 AM 52.0 °F - 42.1 °F 69% 30.05 in 8.0 mi ESE 9.2 mph - N/A   Overcast
11:52 AM 55.0 °F - 43.0 °F 64% 30.03 in 9.0 mi East 6.9 mph - N/A   Mostly Cloudy
12:52 PM 57.9 °F - 44.1 °F 60% 29.99 in 10.0 mi ENE 11.5 mph - N/A   Overcast
1:52 PM 60.1 °F - 44.1 °F 55% 29.95 in 10.0 mi ESE 9.2 mph - N/A   Partly Cloudy
2:52 PM 64.9 °F - 44.1 °F 47% 29.91 in 10.0 mi ENE 11.5 mph - N/A   Clear
3:52 PM 64.0 °F - 45.0 °F 50% 29.88 in 10.0 mi ENE 10.4 mph - N/A   Mostly Cloudy
4:52 PM 63.0 °F - 44.1 °F 50% 29.86 in 10.0 mi East 6.9 mph - N/A   Scattered Clouds
5:52 PM 61.0 °F - 44.1 °F 54% 29.85 in 10.0 mi ENE 5.8 mph - N/A   Mostly Cloudy
6:52 PM 57.0 °F - 42.1 °F 57% 29.88 in 10.0 mi NNE 8.1 mph - N/A   Overcast
7:52 PM 52.0 °F - 41.0 °F 66% 29.90 in 10.0 mi ENE 6.9 mph - N/A   Overcast
8:52 PM 50.0 °F - 41.0 °F 71% 29.90 in 10.0 mi SE 4.6 mph - N/A   Mostly Cloudy
9:52 PM 50.0 °F - 41.0 °F 71% 29.92 in 10.0 mi SSE 4.6 mph - N/A   Overcast
10:52 PM 51.1 °F - 42.1 °F 71% 29.94 in 10.0 mi NNE 11.5 mph - 0.00 in   Overcast
11:52 PM 48.0 °F - 44.1 °F 86% 29.95 in 6.0 mi NE 5.8 mph - 0.00 in   Overcast